Location: S�tio Afonso Gruber
(26.1760°S, 49.5250°W)
Time: 17:10:35
(UTC+00:00)

X-37B - Visible Passes

Search period start: 25 February 2021 00:00
Search period end: 07 March 2021 00:00
Orbit: 383 x 391 km, 45.0° (Epoch: 10 February)

Date Brightness Start Highest point End Pass type
(mag) Time Alt. Az. Time Alt. Az. Time Alt. Az.
25 Feb 2.2 22:51:26 10° SSW 22:54:08 24° SSE 22:55:03 21° ESE visible
26 Feb 1.6 23:29:14 10° WSW 23:31:47 47° W 23:31:47 47° W visible
27 Feb 1.0 22:30:55 10° SW 22:34:06 51° SE 22:36:20 17° ENE visible
28 Feb 2.5 23:09:32 10° WSW 23:12:13 24° NW 23:13:19 20° NNW visible
01 Mar 1.1 22:10:46 10° WSW 22:13:58 60° NW 22:17:08 10° NE visible
02 Mar 3.8 22:51:38 10° NW 22:51:56 10° NW 22:52:14 10° NW visible
